index,time,SiteAddr,SiteName,app,area,date,device_id,gps_alt,gps_fix,gps_lat,gps_lon,gps_num,name,s_d0,s_d1,s_d2,s_h0,s_t0,timestamp
0,07:47:33,高雄市中路國小 高雄市阿蓮區中路里272號,高雄市市立中路國小(2018),AirBox,kaohsiung,2024-03-22,74DA38F20FFE,2.0,1.0,22.894,120.298,9.0,zlp,15.0,16.0,10.0,100.0,25.37,2024-03-22T07:47:33Z
1,08:13:45,高雄市中路國小 高雄市阿蓮區中路里272號,高雄市市立中路國小(2018),AirBox,kaohsiung,2024-03-22,74DA38F20FFE,2.0,1.0,22.894,120.298,9.0,zlp,14.0,16.0,10.0,100.0,25.12,2024-03-22T08:13:45Z
2,08:20:32,高雄市中路國小 高雄市阿蓮區中路里272號,高雄市市立中路國小(2018),AirBox,kaohsiung,2024-03-22,74DA38F20FFE,2.0,1.0,22.894,120.298,9.0,zlp,13.0,14.0,9.0,100.0,25.0,2024-03-22T08:20:32Z
3,08:26:58,高雄市中路國小 高雄市阿蓮區中路里272號,高雄市市立中路國小(2018),AirBox,kaohsiung,2024-03-22,74DA38F20FFE,2.0,1.0,22.894,120.298,9.0,zlp,15.0,16.0,10.0,100.0,25.0,2024-03-22T08:26:58Z
4,08:33:08,高雄市中路國小 高雄市阿蓮區中路里272號,高雄市市立中路國小(2018),AirBox,kaohsiung,2024-03-22,74DA38F20FFE,2.0,1.0,22.894,120.298,9.0,zlp,13.0,14.0,9.0,100.0,24.87,2024-03-22T08:33:08Z
5,08:39:29,高雄市中路國小 高雄市阿蓮區中路里272號,高雄市市立中路國小(2018),AirBox,kaohsiung,2024-03-22,74DA38F20FFE,2.0,1.0,22.894,120.298,9.0,zlp,12.0,13.0,8.0,100.0,24.87,2024-03-22T08:39:29Z
6,08:52:21,高雄市中路國小 高雄市阿蓮區中路里272號,高雄市市立中路國小(2018),AirBox,kaohsiung,2024-03-22,74DA38F20FFE,2.0,1.0,22.894,120.298,9.0,zlp,12.0,13.0,8.0,100.0,24.75,2024-03-22T08:52:21Z
7,08:58:30,高雄市中路國小 高雄市阿蓮區中路里272號,高雄市市立中路國小(2018),AirBox,kaohsiung,2024-03-22,74DA38F20FFE,2.0,1.0,22.894,120.298,9.0,zlp,11.0,12.0,8.0,100.0,24.75,2024-03-22T08:58:30Z
8,09:05:13,高雄市中路國小 高雄市阿蓮區中路里272號,高雄市市立中路國小(2018),AirBox,kaohsiung,2024-03-22,74DA38F20FFE,2.0,1.0,22.894,120.298,9.0,zlp,11.0,12.0,8.0,100.0,24.75,2024-03-22T09:05:13Z
9,09:11:23,高雄市中路國小 高雄市阿蓮區中路里272號,高雄市市立中路國小(2018),AirBox,kaohsiung,2024-03-22,74DA38F20FFE,2.0,1.0,22.894,120.298,9.0,zlp,16.0,18.0,10.0,100.0,24.62,2024-03-22T09:11:23Z
10,09:17:43,高雄市中路國小 高雄市阿蓮區中路里272號,高雄市市立中路國小(2018),AirBox,kaohsiung,2024-03-22,74DA38F20FFE,2.0,1.0,22.894,120.298,9.0,zlp,12.0,13.0,8.0,100.0,24.62,2024-03-22T09:17:43Z
11,09:24:10,高雄市中路國小 高雄市阿蓮區中路里272號,高雄市市立中路國小(2018),AirBox,kaohsiung,2024-03-22,74DA38F20FFE,2.0,1.0,22.894,120.298,9.0,zlp,15.0,17.0,9.0,100.0,24.62,2024-03-22T09:24:10Z
12,09:30:26,高雄市中路國小 高雄市阿蓮區中路里272號,高雄市市立中路國小(2018),AirBox,kaohsiung,2024-03-22,74DA38F20FFE,2.0,1.0,22.894,120.298,9.0,zlp,29.0,34.0,17.0,100.0,24.5,2024-03-22T09:30:26Z
13,09:37:10,高雄市中路國小 高雄市阿蓮區中路里272號,高雄市市立中路國小(2018),AirBox,kaohsiung,2024-03-22,74DA38F20FFE,2.0,1.0,22.894,120.298,9.0,zlp,23.0,26.0,14.0,100.0,24.5,2024-03-22T09:37:10Z
14,09:43:20,高雄市中路國小 高雄市阿蓮區中路里272號,高雄市市立中路國小(2018),AirBox,kaohsiung,2024-03-22,74DA38F20FFE,2.0,1.0,22.894,120.298,9.0,zlp,14.0,15.0,9.0,100.0,24.37,2024-03-22T09:43:20Z
15,09:49:30,高雄市中路國小 高雄市阿蓮區中路里272號,高雄市市立中路國小(2018),AirBox,kaohsiung,2024-03-22,74DA38F20FFE,2.0,1.0,22.894,120.298,9.0,zlp,11.0,12.0,7.0,100.0,24.37,2024-03-22T09:49:30Z
16,09:55:38,高雄市中路國小 高雄市阿蓮區中路里272號,高雄市市立中路國小(2018),AirBox,kaohsiung,2024-03-22,74DA38F20FFE,2.0,1.0,22.894,120.298,9.0,zlp,10.0,10.0,6.0,100.0,24.37,2024-03-22T09:55:38Z
17,10:01:49,高雄市中路國小 高雄市阿蓮區中路里272號,高雄市市立中路國小(2018),AirBox,kaohsiung,2024-03-22,74DA38F20FFE,2.0,1.0,22.894,120.298,9.0,zlp,11.0,12.0,7.0,100.0,24.25,2024-03-22T10:01:49Z
18,10:07:57,高雄市中路國小 高雄市阿蓮區中路里272號,高雄市市立中路國小(2018),AirBox,kaohsiung,2024-03-22,74DA38F20FFE,2.0,1.0,22.894,120.298,9.0,zlp,15.0,16.0,11.0,100.0,24.25,2024-03-22T10:07:57Z
19,10:14:10,高雄市中路國小 高雄市阿蓮區中路里272號,高雄市市立中路國小(2018),AirBox,kaohsiung,2024-03-22,74DA38F20FFE,2.0,1.0,22.894,120.298,9.0,zlp,16.0,18.0,12.0,100.0,24.25,2024-03-22T10:14:10Z
20,10:20:17,高雄市中路國小 高雄市阿蓮區中路里272號,高雄市市立中路國小(2018),AirBox,kaohsiung,2024-03-22,74DA38F20FFE,2.0,1.0,22.894,120.298,9.0,zlp,19.0,20.0,15.0,100.0,24.12,2024-03-22T10:20:17Z
21,10:26:34,高雄市中路國小 高雄市阿蓮區中路里272號,高雄市市立中路國小(2018),AirBox,kaohsiung,2024-03-22,74DA38F20FFE,2.0,1.0,22.894,120.298,9.0,zlp,18.0,19.0,14.0,100.0,24.25,2024-03-22T10:26:34Z
22,10:32:44,高雄市中路國小 高雄市阿蓮區中路里272號,高雄市市立中路國小(2018),AirBox,kaohsiung,2024-03-22,74DA38F20FFE,2.0,1.0,22.894,120.298,9.0,zlp,19.0,20.0,15.0,100.0,24.12,2024-03-22T10:32:44Z
23,10:38:52,高雄市中路國小 高雄市阿蓮區中路里272號,高雄市市立中路國小(2018),AirBox,kaohsiung,2024-03-22,74DA38F20FFE,2.0,1.0,22.894,120.298,9.0,zlp,21.0,23.0,17.0,100.0,24.12,2024-03-22T10:38:52Z
24,10:45:06,高雄市中路國小 高雄市阿蓮區中路里272號,高雄市市立中路國小(2018),AirBox,kaohsiung,2024-03-22,74DA38F20FFE,2.0,1.0,22.894,120.298,9.0,zlp,25.0,26.0,20.0,100.0,24.12,2024-03-22T10:45:06Z
25,10:51:13,高雄市中路國小 高雄市阿蓮區中路里272號,高雄市市立中路國小(2018),AirBox,kaohsiung,2024-03-22,74DA38F20FFE,2.0,1.0,22.894,120.298,9.0,zlp,26.0,27.0,20.0,100.0,24.12,2024-03-22T10:51:13Z
26,10:57:23,高雄市中路國小 高雄市阿蓮區中路里272號,高雄市市立中路國小(2018),AirBox,kaohsiung,2024-03-22,74DA38F20FFE,2.0,1.0,22.894,120.298,9.0,zlp,34.0,38.0,27.0,100.0,24.12,2024-03-22T10:57:23Z
27,11:03:34,高雄市中路國小 高雄市阿蓮區中路里272號,高雄市市立中路國小(2018),AirBox,kaohsiung,2024-03-22,74DA38F20FFE,2.0,1.0,22.894,120.298,9.0,zlp,23.0,26.0,18.0,100.0,24.0,2024-03-22T11:03:34Z
28,11:09:43,高雄市中路國小 高雄市阿蓮區中路里272號,高雄市市立中路國小(2018),AirBox,kaohsiung,2024-03-22,74DA38F20FFE,2.0,1.0,22.894,120.298,9.0,zlp,28.0,32.0,22.0,100.0,24.0,2024-03-22T11:09:43Z
29,11:15:50,高雄市中路國小 高雄市阿蓮區中路里272號,高雄市市立中路國小(2018),AirBox,kaohsiung,2024-03-22,74DA38F20FFE,2.0,1.0,22.894,120.298,9.0,zlp,17.0,19.0,12.0,100.0,23.75,2024-03-22T11:15:50Z
30,11:21:58,高雄市中路國小 高雄市阿蓮區中路里272號,高雄市市立中路國小(2018),AirBox,kaohsiung,2024-03-22,74DA38F20FFE,2.0,1.0,22.894,120.298,9.0,zlp,13.0,15.0,10.0,100.0,23.62,2024-03-22T11:21:58Z
31,11:28:16,高雄市中路國小 高雄市阿蓮區中路里272號,高雄市市立中路國小(2018),AirBox,kaohsiung,2024-03-22,74DA38F20FFE,2.0,1.0,22.894,120.298,9.0,zlp,30.0,33.0,22.0,100.0,23.5,2024-03-22T11:28:16Z
32,11:34:31,高雄市中路國小 高雄市阿蓮區中路里272號,高雄市市立中路國小(2018),AirBox,kaohsiung,2024-03-22,74DA38F20FFE,2.0,1.0,22.894,120.298,9.0,zlp,30.0,33.0,23.0,100.0,23.62,2024-03-22T11:34:31Z
33,11:47:26,高雄市中路國小 高雄市阿蓮區中路里272號,高雄市市立中路國小(2018),AirBox,kaohsiung,2024-03-22,74DA38F20FFE,2.0,1.0,22.894,120.298,9.0,zlp,22.0,24.0,17.0,100.0,23.75,2024-03-22T11:47:26Z
34,11:53:45,高雄市中路國小 高雄市阿蓮區中路里272號,高雄市市立中路國小(2018),AirBox,kaohsiung,2024-03-22,74DA38F20FFE,2.0,1.0,22.894,120.298,9.0,zlp,31.0,34.0,24.0,100.0,23.5,2024-03-22T11:53:45Z
35,12:00:01,高雄市中路國小 高雄市阿蓮區中路里272號,高雄市市立中路國小(2018),AirBox,kaohsiung,2024-03-22,74DA38F20FFE,2.0,1.0,22.894,120.298,9.0,zlp,30.0,33.0,22.0,100.0,23.37,2024-03-22T12:00:01Z
36,12:06:17,高雄市中路國小 高雄市阿蓮區中路里272號,高雄市市立中路國小(2018),AirBox,kaohsiung,2024-03-22,74DA38F20FFE,2.0,1.0,22.894,120.298,9.0,zlp,30.0,33.0,22.0,100.0,23.37,2024-03-22T12:06:17Z
37,12:12:33,高雄市中路國小 高雄市阿蓮區中路里272號,高雄市市立中路國小(2018),AirBox,kaohsiung,2024-03-22,74DA38F20FFE,2.0,1.0,22.894,120.298,9.0,zlp,32.0,35.0,23.0,100.0,23.25,2024-03-22T12:12:33Z
38,12:18:50,高雄市中路國小 高雄市阿蓮區中路里272號,高雄市市立中路國小(2018),AirBox,kaohsiung,2024-03-22,74DA38F20FFE,2.0,1.0,22.894,120.298,9.0,zlp,32.0,36.0,24.0,100.0,23.12,2024-03-22T12:18:50Z
39,12:25:13,高雄市中路國小 高雄市阿蓮區中路里272號,高雄市市立中路國小(2018),AirBox,kaohsiung,2024-03-22,74DA38F20FFE,2.0,1.0,22.894,120.298,9.0,zlp,32.0,36.0,23.0,100.0,23.0,2024-03-22T12:25:13Z
40,12:31:40,高雄市中路國小 高雄市阿蓮區中路里272號,高雄市市立中路國小(2018),AirBox,kaohsiung,2024-03-22,74DA38F20FFE,2.0,1.0,22.894,120.298,9.0,zlp,33.0,38.0,24.0,100.0,23.0,2024-03-22T12:31:40Z
41,12:38:14,高雄市中路國小 高雄市阿蓮區中路里272號,高雄市市立中路國小(2018),AirBox,kaohsiung,2024-03-22,74DA38F20FFE,2.0,1.0,22.894,120.298,9.0,zlp,26.0,29.0,18.0,100.0,23.0,2024-03-22T12:38:14Z
42,12:44:35,高雄市中路國小 高雄市阿蓮區中路里272號,高雄市市立中路國小(2018),AirBox,kaohsiung,2024-03-22,74DA38F20FFE,2.0,1.0,22.894,120.298,9.0,zlp,22.0,23.0,15.0,100.0,22.87,2024-03-22T12:44:35Z
43,12:50:49,高雄市中路國小 高雄市阿蓮區中路里272號,高雄市市立中路國小(2018),AirBox,kaohsiung,2024-03-22,74DA38F20FFE,2.0,1.0,22.894,120.298,9.0,zlp,21.0,23.0,14.0,100.0,22.75,2024-03-22T12:50:49Z
44,12:57:06,高雄市中路國小 高雄市阿蓮區中路里272號,高雄市市立中路國小(2018),AirBox,kaohsiung,2024-03-22,74DA38F20FFE,2.0,1.0,22.894,120.298,9.0,zlp,21.0,22.0,14.0,100.0,22.75,2024-03-22T12:57:06Z
45,13:03:20,高雄市中路國小 高雄市阿蓮區中路里272號,高雄市市立中路國小(2018),AirBox,kaohsiung,2024-03-22,74DA38F20FFE,2.0,1.0,22.894,120.298,9.0,zlp,20.0,21.0,13.0,100.0,22.5,2024-03-22T13:03:20Z
46,13:09:44,高雄市中路國小 高雄市阿蓮區中路里272號,高雄市市立中路國小(2018),AirBox,kaohsiung,2024-03-22,74DA38F20FFE,2.0,1.0,22.894,120.298,9.0,zlp,19.0,20.0,12.0,100.0,22.25,2024-03-22T13:09:44Z
47,13:15:53,高雄市中路國小 高雄市阿蓮區中路里272號,高雄市市立中路國小(2018),AirBox,kaohsiung,2024-03-22,74DA38F20FFE,2.0,1.0,22.894,120.298,9.0,zlp,19.0,20.0,13.0,100.0,22.25,2024-03-22T13:15:53Z
48,13:22:12,高雄市中路國小 高雄市阿蓮區中路里272號,高雄市市立中路國小(2018),AirBox,kaohsiung,2024-03-22,74DA38F20FFE,2.0,1.0,22.894,120.298,9.0,zlp,20.0,21.0,13.0,100.0,22.37,2024-03-22T13:22:12Z
49,13:28:22,高雄市中路國小 高雄市阿蓮區中路里272號,高雄市市立中路國小(2018),AirBox,kaohsiung,2024-03-22,74DA38F20FFE,2.0,1.0,22.894,120.298,9.0,zlp,21.0,23.0,14.0,100.0,22.37,2024-03-22T13:28:22Z
50,13:34:35,高雄市中路國小 高雄市阿蓮區中路里272號,高雄市市立中路國小(2018),AirBox,kaohsiung,2024-03-22,74DA38F20FFE,2.0,1.0,22.894,120.298,9.0,zlp,21.0,23.0,14.0,100.0,22.25,2024-03-22T13:34:35Z
51,13:40:53,高雄市中路國小 高雄市阿蓮區中路里272號,高雄市市立中路國小(2018),AirBox,kaohsiung,2024-03-22,74DA38F20FFE,2.0,1.0,22.894,120.298,9.0,zlp,20.0,21.0,14.0,100.0,22.12,2024-03-22T13:40:53Z
52,13:47:03,高雄市中路國小 高雄市阿蓮區中路里272號,高雄市市立中路國小(2018),AirBox,kaohsiung,2024-03-22,74DA38F20FFE,2.0,1.0,22.894,120.298,9.0,zlp,21.0,22.0,14.0,100.0,22.12,2024-03-22T13:47:03Z
53,13:59:58,高雄市中路國小 高雄市阿蓮區中路里272號,高雄市市立中路國小(2018),AirBox,kaohsiung,2024-03-22,74DA38F20FFE,2.0,1.0,22.894,120.298,9.0,zlp,21.0,22.0,14.0,100.0,22.12,2024-03-22T13:59:58Z
54,14:06:08,高雄市中路國小 高雄市阿蓮區中路里272號,高雄市市立中路國小(2018),AirBox,kaohsiung,2024-03-22,74DA38F20FFE,2.0,1.0,22.894,120.298,9.0,zlp,21.0,22.0,14.0,100.0,22.25,2024-03-22T14:06:08Z
55,14:12:46,高雄市中路國小 高雄市阿蓮區中路里272號,高雄市市立中路國小(2018),AirBox,kaohsiung,2024-03-22,74DA38F20FFE,2.0,1.0,22.894,120.298,9.0,zlp,23.0,24.0,15.0,100.0,22.25,2024-03-22T14:12:46Z
56,14:18:59,高雄市中路國小 高雄市阿蓮區中路里272號,高雄市市立中路國小(2018),AirBox,kaohsiung,2024-03-22,74DA38F20FFE,2.0,1.0,22.894,120.298,9.0,zlp,21.0,23.0,14.0,100.0,22.12,2024-03-22T14:18:59Z
57,14:25:08,高雄市中路國小 高雄市阿蓮區中路里272號,高雄市市立中路國小(2018),AirBox,kaohsiung,2024-03-22,74DA38F20FFE,2.0,1.0,22.894,120.298,9.0,zlp,20.0,22.0,14.0,100.0,22.0,2024-03-22T14:25:08Z
58,14:31:18,高雄市中路國小 高雄市阿蓮區中路里272號,高雄市市立中路國小(2018),AirBox,kaohsiung,2024-03-22,74DA38F20FFE,2.0,1.0,22.894,120.298,9.0,zlp,21.0,22.0,14.0,100.0,22.12,2024-03-22T14:31:18Z
59,14:37:30,高雄市中路國小 高雄市阿蓮區中路里272號,高雄市市立中路國小(2018),AirBox,kaohsiung,2024-03-22,74DA38F20FFE,2.0,1.0,22.894,120.298,9.0,zlp,22.0,23.0,14.0,100.0,22.25,2024-03-22T14:37:30Z
60,14:43:41,高雄市中路國小 高雄市阿蓮區中路里272號,高雄市市立中路國小(2018),AirBox,kaohsiung,2024-03-22,74DA38F20FFE,2.0,1.0,22.894,120.298,9.0,zlp,23.0,25.0,15.0,100.0,22.37,2024-03-22T14:43:41Z
61,14:49:54,高雄市中路國小 高雄市阿蓮區中路里272號,高雄市市立中路國小(2018),AirBox,kaohsiung,2024-03-22,74DA38F20FFE,2.0,1.0,22.894,120.298,9.0,zlp,22.0,24.0,15.0,100.0,22.5,2024-03-22T14:49:54Z
62,14:56:02,高雄市中路國小 高雄市阿蓮區中路里272號,高雄市市立中路國小(2018),AirBox,kaohsiung,2024-03-22,74DA38F20FFE,2.0,1.0,22.894,120.298,9.0,zlp,24.0,25.0,16.0,100.0,22.37,2024-03-22T14:56:02Z
63,15:02:16,高雄市中路國小 高雄市阿蓮區中路里272號,高雄市市立中路國小(2018),AirBox,kaohsiung,2024-03-22,74DA38F20FFE,2.0,1.0,22.894,120.298,9.0,zlp,27.0,30.0,18.0,100.0,22.25,2024-03-22T15:02:16Z
64,15:08:26,高雄市中路國小 高雄市阿蓮區中路里272號,高雄市市立中路國小(2018),AirBox,kaohsiung,2024-03-22,74DA38F20FFE,2.0,1.0,22.894,120.298,9.0,zlp,28.0,30.0,19.0,100.0,22.12,2024-03-22T15:08:26Z
65,15:14:37,高雄市中路國小 高雄市阿蓮區中路里272號,高雄市市立中路國小(2018),AirBox,kaohsiung,2024-03-22,74DA38F20FFE,2.0,1.0,22.894,120.298,9.0,zlp,28.0,30.0,18.0,100.0,22.0,2024-03-22T15:14:37Z
66,15:20:54,高雄市中路國小 高雄市阿蓮區中路里272號,高雄市市立中路國小(2018),AirBox,kaohsiung,2024-03-22,74DA38F20FFE,2.0,1.0,22.894,120.298,9.0,zlp,27.0,29.0,18.0,100.0,22.0,2024-03-22T15:20:54Z
67,15:27:05,高雄市中路國小 高雄市阿蓮區中路里272號,高雄市市立中路國小(2018),AirBox,kaohsiung,2024-03-22,74DA38F20FFE,2.0,1.0,22.894,120.298,9.0,zlp,26.0,27.0,17.0,100.0,21.87,2024-03-22T15:27:05Z
68,15:33:16,高雄市中路國小 高雄市阿蓮區中路里272號,高雄市市立中路國小(2018),AirBox,kaohsiung,2024-03-22,74DA38F20FFE,2.0,1.0,22.894,120.298,9.0,zlp,25.0,26.0,16.0,100.0,21.87,2024-03-22T15:33:16Z
69,15:39:29,高雄市中路國小 高雄市阿蓮區中路里272號,高雄市市立中路國小(2018),AirBox,kaohsiung,2024-03-22,74DA38F20FFE,2.0,1.0,22.894,120.298,9.0,zlp,24.0,25.0,16.0,100.0,21.87,2024-03-22T15:39:29Z
70,15:45:42,高雄市中路國小 高雄市阿蓮區中路里272號,高雄市市立中路國小(2018),AirBox,kaohsiung,2024-03-22,74DA38F20FFE,2.0,1.0,22.894,120.298,9.0,zlp,24.0,25.0,15.0,100.0,22.0,2024-03-22T15:45:42Z
71,15:51:54,高雄市中路國小 高雄市阿蓮區中路里272號,高雄市市立中路國小(2018),AirBox,kaohsiung,2024-03-22,74DA38F20FFE,2.0,1.0,22.894,120.298,9.0,zlp,21.0,23.0,14.0,100.0,22.0,2024-03-22T15:51:54Z
72,15:58:16,高雄市中路國小 高雄市阿蓮區中路里272號,高雄市市立中路國小(2018),AirBox,kaohsiung,2024-03-22,74DA38F20FFE,2.0,1.0,22.894,120.298,9.0,zlp,22.0,23.0,15.0,100.0,22.0,2024-03-22T15:58:16Z
73,16:04:28,高雄市中路國小 高雄市阿蓮區中路里272號,高雄市市立中路國小(2018),AirBox,kaohsiung,2024-03-22,74DA38F20FFE,2.0,1.0,22.894,120.298,9.0,zlp,21.0,22.0,14.0,100.0,22.12,2024-03-22T16:04:28Z
74,16:10:50,高雄市中路國小 高雄市阿蓮區中路里272號,高雄市市立中路國小(2018),AirBox,kaohsiung,2024-03-22,74DA38F20FFE,2.0,1.0,22.894,120.298,9.0,zlp,21.0,22.0,14.0,100.0,22.12,2024-03-22T16:10:50Z
75,16:17:02,高雄市中路國小 高雄市阿蓮區中路里272號,高雄市市立中路國小(2018),AirBox,kaohsiung,2024-03-22,74DA38F20FFE,2.0,1.0,22.894,120.298,9.0,zlp,21.0,22.0,14.0,100.0,22.25,2024-03-22T16:17:02Z
76,16:23:17,高雄市中路國小 高雄市阿蓮區中路里272號,高雄市市立中路國小(2018),AirBox,kaohsiung,2024-03-22,74DA38F20FFE,2.0,1.0,22.894,120.298,9.0,zlp,20.0,22.0,13.0,100.0,22.37,2024-03-22T16:23:17Z
77,16:29:37,高雄市中路國小 高雄市阿蓮區中路里272號,高雄市市立中路國小(2018),AirBox,kaohsiung,2024-03-22,74DA38F20FFE,2.0,1.0,22.894,120.298,9.0,zlp,20.0,21.0,14.0,100.0,22.37,2024-03-22T16:29:37Z
78,16:35:46,高雄市中路國小 高雄市阿蓮區中路里272號,高雄市市立中路國小(2018),AirBox,kaohsiung,2024-03-22,74DA38F20FFE,2.0,1.0,22.894,120.298,9.0,zlp,21.0,22.0,15.0,100.0,22.37,2024-03-22T16:35:46Z
79,16:41:55,高雄市中路國小 高雄市阿蓮區中路里272號,高雄市市立中路國小(2018),AirBox,kaohsiung,2024-03-22,74DA38F20FFE,2.0,1.0,22.894,120.298,9.0,zlp,20.0,21.0,13.0,100.0,22.25,2024-03-22T16:41:55Z
80,16:48:06,高雄市中路國小 高雄市阿蓮區中路里272號,高雄市市立中路國小(2018),AirBox,kaohsiung,2024-03-22,74DA38F20FFE,2.0,1.0,22.894,120.298,9.0,zlp,20.0,22.0,14.0,100.0,22.12,2024-03-22T16:48:06Z
81,16:54:31,高雄市中路國小 高雄市阿蓮區中路里272號,高雄市市立中路國小(2018),AirBox,kaohsiung,2024-03-22,74DA38F20FFE,2.0,1.0,22.894,120.298,9.0,zlp,20.0,21.0,14.0,100.0,22.25,2024-03-22T16:54:31Z
82,17:00:43,高雄市中路國小 高雄市阿蓮區中路里272號,高雄市市立中路國小(2018),AirBox,kaohsiung,2024-03-22,74DA38F20FFE,2.0,1.0,22.894,120.298,9.0,zlp,23.0,25.0,15.0,100.0,22.12,2024-03-22T17:00:43Z
83,17:07:06,高雄市中路國小 高雄市阿蓮區中路里272號,高雄市市立中路國小(2018),AirBox,kaohsiung,2024-03-22,74DA38F20FFE,2.0,1.0,22.894,120.298,9.0,zlp,23.0,26.0,16.0,100.0,22.12,2024-03-22T17:07:06Z
84,17:13:27,高雄市中路國小 高雄市阿蓮區中路里272號,高雄市市立中路國小(2018),AirBox,kaohsiung,2024-03-22,74DA38F20FFE,2.0,1.0,22.894,120.298,9.0,zlp,24.0,26.0,16.0,100.0,22.12,2024-03-22T17:13:27Z
85,17:19:42,高雄市中路國小 高雄市阿蓮區中路里272號,高雄市市立中路國小(2018),AirBox,kaohsiung,2024-03-22,74DA38F20FFE,2.0,1.0,22.894,120.298,9.0,zlp,22.0,24.0,15.0,100.0,22.12,2024-03-22T17:19:42Z
86,17:25:52,高雄市中路國小 高雄市阿蓮區中路里272號,高雄市市立中路國小(2018),AirBox,kaohsiung,2024-03-22,74DA38F20FFE,2.0,1.0,22.894,120.298,9.0,zlp,23.0,25.0,15.0,100.0,22.25,2024-03-22T17:25:52Z
87,17:32:04,高雄市中路國小 高雄市阿蓮區中路里272號,高雄市市立中路國小(2018),AirBox,kaohsiung,2024-03-22,74DA38F20FFE,2.0,1.0,22.894,120.298,9.0,zlp,22.0,24.0,14.0,100.0,22.25,2024-03-22T17:32:04Z
88,17:38:17,高雄市中路國小 高雄市阿蓮區中路里272號,高雄市市立中路國小(2018),AirBox,kaohsiung,2024-03-22,74DA38F20FFE,2.0,1.0,22.894,120.298,9.0,zlp,22.0,24.0,15.0,100.0,22.25,2024-03-22T17:38:17Z
89,17:44:30,高雄市中路國小 高雄市阿蓮區中路里272號,高雄市市立中路國小(2018),AirBox,kaohsiung,2024-03-22,74DA38F20FFE,2.0,1.0,22.894,120.298,9.0,zlp,22.0,24.0,15.0,100.0,22.25,2024-03-22T17:44:30Z
90,17:50:46,高雄市中路國小 高雄市阿蓮區中路里272號,高雄市市立中路國小(2018),AirBox,kaohsiung,2024-03-22,74DA38F20FFE,2.0,1.0,22.894,120.298,9.0,zlp,22.0,23.0,14.0,100.0,22.25,2024-03-22T17:50:46Z
91,17:56:54,高雄市中路國小 高雄市阿蓮區中路里272號,高雄市市立中路國小(2018),AirBox,kaohsiung,2024-03-22,74DA38F20FFE,2.0,1.0,22.894,120.298,9.0,zlp,23.0,24.0,15.0,100.0,22.37,2024-03-22T17:56:54Z
92,18:03:04,高雄市中路國小 高雄市阿蓮區中路里272號,高雄市市立中路國小(2018),AirBox,kaohsiung,2024-03-22,74DA38F20FFE,2.0,1.0,22.894,120.298,9.0,zlp,24.0,25.0,16.0,100.0,22.0,2024-03-22T18:03:04Z
93,18:09:13,高雄市中路國小 高雄市阿蓮區中路里272號,高雄市市立中路國小(2018),AirBox,kaohsiung,2024-03-22,74DA38F20FFE,2.0,1.0,22.894,120.298,9.0,zlp,23.0,24.0,16.0,100.0,21.75,2024-03-22T18:09:13Z
94,18:22:00,高雄市中路國小 高雄市阿蓮區中路里272號,高雄市市立中路國小(2018),AirBox,kaohsiung,2024-03-22,74DA38F20FFE,2.0,1.0,22.894,120.298,9.0,zlp,22.0,23.0,14.0,100.0,21.75,2024-03-22T18:22:00Z
95,18:28:18,高雄市中路國小 高雄市阿蓮區中路里272號,高雄市市立中路國小(2018),AirBox,kaohsiung,2024-03-22,74DA38F20FFE,2.0,1.0,22.894,120.298,9.0,zlp,22.0,23.0,15.0,100.0,21.62,2024-03-22T18:28:18Z
96,18:34:28,高雄市中路國小 高雄市阿蓮區中路里272號,高雄市市立中路國小(2018),AirBox,kaohsiung,2024-03-22,74DA38F20FFE,2.0,1.0,22.894,120.298,9.0,zlp,22.0,24.0,15.0,100.0,21.62,2024-03-22T18:34:28Z
97,18:40:58,高雄市中路國小 高雄市阿蓮區中路里272號,高雄市市立中路國小(2018),AirBox,kaohsiung,2024-03-22,74DA38F20FFE,2.0,1.0,22.894,120.298,9.0,zlp,21.0,22.0,15.0,100.0,21.62,2024-03-22T18:40:58Z
98,18:47:09,高雄市中路國小 高雄市阿蓮區中路里272號,高雄市市立中路國小(2018),AirBox,kaohsiung,2024-03-22,74DA38F20FFE,2.0,1.0,22.894,120.298,9.0,zlp,21.0,22.0,14.0,100.0,21.62,2024-03-22T18:47:09Z
99,18:53:18,高雄市中路國小 高雄市阿蓮區中路里272號,高雄市市立中路國小(2018),AirBox,kaohsiung,2024-03-22,74DA38F20FFE,2.0,1.0,22.894,120.298,9.0,zlp,21.0,22.0,14.0,100.0,21.5,2024-03-22T18:53:18Z
100,18:59:33,高雄市中路國小 高雄市阿蓮區中路里272號,高雄市市立中路國小(2018),AirBox,kaohsiung,2024-03-22,74DA38F20FFE,2.0,1.0,22.894,120.298,9.0,zlp,21.0,23.0,14.0,100.0,21.62,2024-03-22T18:59:33Z
101,19:05:46,高雄市中路國小 高雄市阿蓮區中路里272號,高雄市市立中路國小(2018),AirBox,kaohsiung,2024-03-22,74DA38F20FFE,2.0,1.0,22.894,120.298,9.0,zlp,20.0,22.0,13.0,100.0,21.5,2024-03-22T19:05:46Z
102,19:11:58,高雄市中路國小 高雄市阿蓮區中路里272號,高雄市市立中路國小(2018),AirBox,kaohsiung,2024-03-22,74DA38F20FFE,2.0,1.0,22.894,120.298,9.0,zlp,20.0,21.0,13.0,100.0,21.5,2024-03-22T19:11:58Z
103,19:18:15,高雄市中路國小 高雄市阿蓮區中路里272號,高雄市市立中路國小(2018),AirBox,kaohsiung,2024-03-22,74DA38F20FFE,2.0,1.0,22.894,120.298,9.0,zlp,19.0,21.0,13.0,100.0,21.62,2024-03-22T19:18:15Z
104,19:24:26,高雄市中路國小 高雄市阿蓮區中路里272號,高雄市市立中路國小(2018),AirBox,kaohsiung,2024-03-22,74DA38F20FFE,2.0,1.0,22.894,120.298,9.0,zlp,19.0,21.0,13.0,100.0,21.75,2024-03-22T19:24:26Z
105,19:30:37,高雄市中路國小 高雄市阿蓮區中路里272號,高雄市市立中路國小(2018),AirBox,kaohsiung,2024-03-22,74DA38F20FFE,2.0,1.0,22.894,120.298,9.0,zlp,19.0,20.0,13.0,100.0,21.75,2024-03-22T19:30:37Z
106,19:36:49,高雄市中路國小 高雄市阿蓮區中路里272號,高雄市市立中路國小(2018),AirBox,kaohsiung,2024-03-22,74DA38F20FFE,2.0,1.0,22.894,120.298,9.0,zlp,19.0,20.0,12.0,100.0,21.87,2024-03-22T19:36:49Z
107,19:43:28,高雄市中路國小 高雄市阿蓮區中路里272號,高雄市市立中路國小(2018),AirBox,kaohsiung,2024-03-22,74DA38F20FFE,2.0,1.0,22.894,120.298,9.0,zlp,18.0,19.0,12.0,100.0,21.87,2024-03-22T19:43:28Z
108,19:49:35,高雄市中路國小 高雄市阿蓮區中路里272號,高雄市市立中路國小(2018),AirBox,kaohsiung,2024-03-22,74DA38F20FFE,2.0,1.0,22.894,120.298,9.0,zlp,18.0,19.0,12.0,100.0,21.87,2024-03-22T19:49:35Z
109,19:55:47,高雄市中路國小 高雄市阿蓮區中路里272號,高雄市市立中路國小(2018),AirBox,kaohsiung,2024-03-22,74DA38F20FFE,2.0,1.0,22.894,120.298,9.0,zlp,18.0,19.0,12.0,100.0,22.0,2024-03-22T19:55:47Z
110,20:01:56,高雄市中路國小 高雄市阿蓮區中路里272號,高雄市市立中路國小(2018),AirBox,kaohsiung,2024-03-22,74DA38F20FFE,2.0,1.0,22.894,120.298,9.0,zlp,18.0,20.0,12.0,100.0,22.0,2024-03-22T20:01:56Z
111,20:14:50,高雄市中路國小 高雄市阿蓮區中路里272號,高雄市市立中路國小(2018),AirBox,kaohsiung,2024-03-22,74DA38F20FFE,2.0,1.0,22.894,120.298,9.0,zlp,19.0,21.0,12.0,100.0,21.87,2024-03-22T20:14:50Z
112,20:20:58,高雄市中路國小 高雄市阿蓮區中路里272號,高雄市市立中路國小(2018),AirBox,kaohsiung,2024-03-22,74DA38F20FFE,2.0,1.0,22.894,120.298,9.0,zlp,19.0,20.0,12.0,100.0,21.75,2024-03-22T20:20:58Z
113,20:27:11,高雄市中路國小 高雄市阿蓮區中路里272號,高雄市市立中路國小(2018),AirBox,kaohsiung,2024-03-22,74DA38F20FFE,2.0,1.0,22.894,120.298,9.0,zlp,19.0,20.0,12.0,100.0,21.75,2024-03-22T20:27:11Z
114,20:33:18,高雄市中路國小 高雄市阿蓮區中路里272號,高雄市市立中路國小(2018),AirBox,kaohsiung,2024-03-22,74DA38F20FFE,2.0,1.0,22.894,120.298,9.0,zlp,19.0,21.0,13.0,100.0,21.75,2024-03-22T20:33:18Z
115,20:39:26,高雄市中路國小 高雄市阿蓮區中路里272號,高雄市市立中路國小(2018),AirBox,kaohsiung,2024-03-22,74DA38F20FFE,2.0,1.0,22.894,120.298,9.0,zlp,20.0,21.0,14.0,100.0,21.75,2024-03-22T20:39:26Z
116,20:45:36,高雄市中路國小 高雄市阿蓮區中路里272號,高雄市市立中路國小(2018),AirBox,kaohsiung,2024-03-22,74DA38F20FFE,2.0,1.0,22.894,120.298,9.0,zlp,22.0,23.0,14.0,100.0,21.75,2024-03-22T20:45:36Z
117,20:51:58,高雄市中路國小 高雄市阿蓮區中路里272號,高雄市市立中路國小(2018),AirBox,kaohsiung,2024-03-22,74DA38F20FFE,2.0,1.0,22.894,120.298,9.0,zlp,24.0,26.0,15.0,100.0,21.75,2024-03-22T20:51:58Z
118,20:58:09,高雄市中路國小 高雄市阿蓮區中路里272號,高雄市市立中路國小(2018),AirBox,kaohsiung,2024-03-22,74DA38F20FFE,2.0,1.0,22.894,120.298,9.0,zlp,23.0,25.0,15.0,100.0,21.87,2024-03-22T20:58:09Z
119,21:04:21,高雄市中路國小 高雄市阿蓮區中路里272號,高雄市市立中路國小(2018),AirBox,kaohsiung,2024-03-22,74DA38F20FFE,2.0,1.0,22.894,120.298,9.0,zlp,21.0,23.0,14.0,100.0,21.87,2024-03-22T21:04:21Z
120,21:10:39,高雄市中路國小 高雄市阿蓮區中路里272號,高雄市市立中路國小(2018),AirBox,kaohsiung,2024-03-22,74DA38F20FFE,2.0,1.0,22.894,120.298,9.0,zlp,22.0,23.0,14.0,100.0,22.0,2024-03-22T21:10:39Z
121,21:16:52,高雄市中路國小 高雄市阿蓮區中路里272號,高雄市市立中路國小(2018),AirBox,kaohsiung,2024-03-22,74DA38F20FFE,2.0,1.0,22.894,120.298,9.0,zlp,20.0,21.0,13.0,100.0,22.0,2024-03-22T21:16:52Z
122,21:23:08,高雄市中路國小 高雄市阿蓮區中路里272號,高雄市市立中路國小(2018),AirBox,kaohsiung,2024-03-22,74DA38F20FFE,2.0,1.0,22.894,120.298,9.0,zlp,18.0,20.0,12.0,100.0,22.0,2024-03-22T21:23:08Z
123,21:29:20,高雄市中路國小 高雄市阿蓮區中路里272號,高雄市市立中路國小(2018),AirBox,kaohsiung,2024-03-22,74DA38F20FFE,2.0,1.0,22.894,120.298,9.0,zlp,20.0,21.0,13.0,100.0,21.87,2024-03-22T21:29:20Z
124,21:35:55,高雄市中路國小 高雄市阿蓮區中路里272號,高雄市市立中路國小(2018),AirBox,kaohsiung,2024-03-22,74DA38F20FFE,2.0,1.0,22.894,120.298,9.0,zlp,19.0,20.0,13.0,100.0,21.75,2024-03-22T21:35:55Z
125,21:42:13,高雄市中路國小 高雄市阿蓮區中路里272號,高雄市市立中路國小(2018),AirBox,kaohsiung,2024-03-22,74DA38F20FFE,2.0,1.0,22.894,120.298,9.0,zlp,19.0,21.0,13.0,100.0,21.87,2024-03-22T21:42:13Z
126,21:48:28,高雄市中路國小 高雄市阿蓮區中路里272號,高雄市市立中路國小(2018),AirBox,kaohsiung,2024-03-22,74DA38F20FFE,2.0,1.0,22.894,120.298,9.0,zlp,19.0,21.0,12.0,100.0,22.0,2024-03-22T21:48:28Z
127,21:54:39,高雄市中路國小 高雄市阿蓮區中路里272號,高雄市市立中路國小(2018),AirBox,kaohsiung,2024-03-22,74DA38F20FFE,2.0,1.0,22.894,120.298,9.0,zlp,19.0,20.0,12.0,100.0,22.0,2024-03-22T21:54:39Z
128,22:00:52,高雄市中路國小 高雄市阿蓮區中路里272號,高雄市市立中路國小(2018),AirBox,kaohsiung,2024-03-22,74DA38F20FFE,2.0,1.0,22.894,120.298,9.0,zlp,23.0,25.0,15.0,100.0,22.12,2024-03-22T22:00:52Z
129,22:07:06,高雄市中路國小 高雄市阿蓮區中路里272號,高雄市市立中路國小(2018),AirBox,kaohsiung,2024-03-22,74DA38F20FFE,2.0,1.0,22.894,120.298,9.0,zlp,36.0,43.0,24.0,100.0,22.0,2024-03-22T22:07:06Z
130,22:13:16,高雄市中路國小 高雄市阿蓮區中路里272號,高雄市市立中路國小(2018),AirBox,kaohsiung,2024-03-22,74DA38F20FFE,2.0,1.0,22.894,120.298,9.0,zlp,29.0,32.0,19.0,100.0,22.0,2024-03-22T22:13:16Z
131,22:19:30,高雄市中路國小 高雄市阿蓮區中路里272號,高雄市市立中路國小(2018),AirBox,kaohsiung,2024-03-22,74DA38F20FFE,2.0,1.0,22.894,120.298,9.0,zlp,29.0,32.0,19.0,100.0,21.87,2024-03-22T22:19:30Z
132,22:25:52,高雄市中路國小 高雄市阿蓮區中路里272號,高雄市市立中路國小(2018),AirBox,kaohsiung,2024-03-22,74DA38F20FFE,2.0,1.0,22.894,120.298,9.0,zlp,35.0,41.0,23.0,100.0,22.0,2024-03-22T22:25:52Z
133,22:32:10,高雄市中路國小 高雄市阿蓮區中路里272號,高雄市市立中路國小(2018),AirBox,kaohsiung,2024-03-22,74DA38F20FFE,2.0,1.0,22.894,120.298,9.0,zlp,34.0,40.0,23.0,100.0,22.12,2024-03-22T22:32:10Z
134,22:38:25,高雄市中路國小 高雄市阿蓮區中路里272號,高雄市市立中路國小(2018),AirBox,kaohsiung,2024-03-22,74DA38F20FFE,2.0,1.0,22.894,120.298,9.0,zlp,34.0,40.0,23.0,100.0,22.25,2024-03-22T22:38:25Z
135,22:44:39,高雄市中路國小 高雄市阿蓮區中路里272號,高雄市市立中路國小(2018),AirBox,kaohsiung,2024-03-22,74DA38F20FFE,2.0,1.0,22.894,120.298,9.0,zlp,33.0,38.0,23.0,100.0,22.25,2024-03-22T22:44:39Z
136,22:50:58,高雄市中路國小 高雄市阿蓮區中路里272號,高雄市市立中路國小(2018),AirBox,kaohsiung,2024-03-22,74DA38F20FFE,2.0,1.0,22.894,120.298,9.0,zlp,42.0,51.0,28.0,100.0,22.25,2024-03-22T22:50:58Z
137,22:57:12,高雄市中路國小 高雄市阿蓮區中路里272號,高雄市市立中路國小(2018),AirBox,kaohsiung,2024-03-22,74DA38F20FFE,2.0,1.0,22.894,120.298,9.0,zlp,37.0,44.0,24.0,100.0,22.37,2024-03-22T22:57:12Z
138,23:03:28,高雄市中路國小 高雄市阿蓮區中路里272號,高雄市市立中路國小(2018),AirBox,kaohsiung,2024-03-22,74DA38F20FFE,2.0,1.0,22.894,120.298,9.0,zlp,36.0,43.0,23.0,100.0,22.37,2024-03-22T23:03:28Z
139,23:09:38,高雄市中路國小 高雄市阿蓮區中路里272號,高雄市市立中路國小(2018),AirBox,kaohsiung,2024-03-22,74DA38F20FFE,2.0,1.0,22.894,120.298,9.0,zlp,31.0,35.0,21.0,100.0,22.37,2024-03-22T23:09:38Z